Simultaneous Nadir Overpasses (SNOs) Predictions

Prediction of SNOs between AQUA and NPP Satellite Orbit:

Table of predicted SNOs for the next 14.0 days since TLE Epoch: 8/14/2021
Index Date (AQUA) Time (AQUA) Lat,Lon (AQUA) SZA (AQUA ) Date (NPP) Time (NPP) Lat,Lon (NPP) SZA (NPP ) Distance(km) Time Diff (sec)
1 08/15/2021 13:16:12 -74.36, 35.66 94.28 08/15/2021 13:15:02 -74.36, 35.61 94.20 1.72 70
2 08/15/2021 14:05:10 75.74,-153.03 84.17 08/15/2021 14:05:17 75.74,-153.07 84.17 1.00 7
3 08/18/2021 05:32:25 -75.16, 153.55 94.36 08/18/2021 05:31:42 -75.16, 153.60 94.34 1.50 43
4 08/18/2021 06:21:26 76.36, -35.24 84.26 08/18/2021 06:22:00 76.37, -35.14 84.21 2.90 34
5 08/20/2021 21:48:47 -75.43, -89.81 93.85 08/20/2021 21:48:32 -75.43, -89.83 93.84 0.49 15
6 08/20/2021 22:37:48 76.62, 81.52 84.78 08/20/2021 22:38:50 76.62, 81.57 84.72 1.40 62
7 08/23/2021 13:16:04 74.60,-143.75 87.92 08/23/2021 13:15:00 74.60,-143.76 87.98 0.26 64
8 08/23/2021 14:05:09 -75.75, 26.99 93.37 08/23/2021 14:05:22 -75.74, 26.92 93.36 1.97 13
9 08/26/2021 05:32:24 75.02, -26.81 88.32 08/26/2021 05:31:48 75.01, -26.85 88.36 1.33 36



Historial Predications of SNOs between AQUA and NPP
